Torna al catalogo

ATLAS 5 CENTAUR DEB

AttivoHEO
NORAD 44642·DEBRIS·🇺🇸 United States

Lanciato Oct 17, 2018 da Cape Canaveral Space Force Station

Loading…

Prossimi Passaggi (prossime 24 ore)

TLE

AggiornatoSource: Space-Track

Epoca: Sep 14, 2026, 11:55 UTC

1 44642U 18079C   26257.49675796 -.00000172  00000-0  00000-0 0  9991
2 44642  13.3538  19.6239 4641110 349.7452   3.2693  1.84469704 53291

Traccia ATLAS 5 CENTAUR DEB in tempo reale con AllMySat

Download on the App Store